EW0624 Weather Reports


Display with metric or nautical units.
time (UTC)temp
F
wind
direction
speed
MPH
gust
MPH
rain 1hr
in
rain 24hr
in
rain mn
in
humidity
%
barometer
mb
20260905140904 79 84 6.0 12.0 0.00 0.00 0.00 78 1017.5
20260905140406 79 49 4.0 8.0 0.00 0.00 0.00 78 1017.6
20260905135905 79 31 5.0 12.0 0.00 0.00 0.00 79 1017.7
20260905135404 79 42 7.0 13.0 0.00 0.00 0.00 79 1017.8
20260905134404 79 82 3.0 12.0 0.00 0.00 0.00 80 1017.9
20260905133903 78 57 10.0 13.0 0.00 0.00 0.00 79 1017.9
20260905133404 79 41 7.0 13.0 0.00 0.00 0.00 80 1017.9
20260905132904 78 56 3.0 12.0 0.00 0.00 0.00 81 1017.9
20260905132404 78 41 12.0 15.0 0.00 0.00 0.00 80 1017.9
20260905131904 78 29 7.0 12.0 0.00 0.00 0.00 81 1018.1
20260905131404 77 69 5.0 12.0 0.00 0.00 0.00 82 1018.1
20260905130904 77 81 5.0 10.0 0.00 0.00 0.00 83 1018.2
20260905130404 77 59 7.0 13.0 0.00 0.00 0.00 83 1018.3
20260905125904 77 71 5.0 12.0 0.00 0.00 0.00 82 1018.4
20260905125404 77 90 6.0 10.0 0.00 0.00 0.00 83 1018.5
20260905124404 76 93 4.0 8.0 0.00 0.00 0.00 85 1018.4
20260905123904 76 83 5.0 10.0 0.00 0.00 0.00 84 1018.5
20260905122904 76 60 8.0 12.0 0.00 0.00 0.00 85 1018.7
20260905122404 75 84 5.0 10.0 0.00 0.00 0.00 85 1018.8
20260905120404 75 46 11.0 16.0 0.00 0.00 0.00 87 1019.0
20260905115904 74 33 5.0 12.0 0.00 0.00 0.00 87 1019.2
20260905115404 74 49 6.0 12.0 0.00 0.00 0.00 88 1019.3
20260905114904 74 54 6.0 12.0 0.00 0.00 0.00 89 1019.4
20260905113904 73 63 6.0 12.0 0.00 0.00 0.00 90 1019.4
20260905113404 73 34 6.0 15.0 0.00 0.00 0.00 91 1019.5
20260905112904 72 61 7.0 12.0 0.00 0.00 0.00 92 1019.6
20260905112404 72 45 6.0 12.0 0.00 0.00 0.00 93 1019.6
20260905111904 72 18 5.0 10.0 0.00 0.00 0.00 93 1019.8
20260905111404 72 32 6.0 12.0 0.00 0.00 0.00 94 1020.0
20260905110404 71 33 3.0 12.0 0.00 0.00 0.00 96 1020.1
20260905105404 70 38 5.0 12.0 0.00 0.00 0.00 98 1020.2
20260905104904 70 40 7.0 14.0 0.00 0.00 0.00 98 1020.2
20260905104404 69 70 6.0 12.0 0.00 0.00 0.00 99 1020.3
20260905103908 69 47 6.0 12.0 0.00 0.00 0.00 99 1020.4
20260905103404 69 20 6.0 12.0 0.00 0.00 0.00 100 1020.6
20260905102904 69 56 6.0 12.0 0.00 0.00 0.00 100 1020.6
20260905102404 68 33 6.0 10.0 0.00 0.00 0.00 100 1020.6
20260905101957 68 44 2.0 12.0 0.00 0.00 0.00 100 1020.8
20260905101405 68 33 6.0 9.0 0.00 0.00 0.00 100 1020.8
20260905100905 68 83 2.0 5.0 0.00 0.00 0.00 100 1020.8
20260905100405 68 75 2.0 9.0 0.00 0.00 0.00 100 1020.9
20260905095404 67 40 4.0 12.0 0.00 0.00 0.00 100 1021.1
20260905094904 67 58 2.0 8.0 0.00 0.00 0.00 100 1021.1
20260905094404 67 45 1.0 8.0 0.00 0.00 0.00 100 1021.1
20260905093904 67 71 5.0 9.0 0.00 0.00 0.00 100 1021.0
20260905093404 67 50 3.0 8.0 0.00 0.00 0.00 100 1021.1
20260905092904 67 64 4.0 12.0 0.00 0.00 0.00 100 1021.1
20260905092404 67 59 5.0 10.0 0.00 0.00 0.00 100 1021.0
20260905091904 67 70 3.0 8.0 0.00 0.00 0.00 100 1021.0
20260905091403 67 74 3.0 7.0 0.00 0.00 0.00 100 1021.1
20260905090904 67 75 4.0 9.0 0.00 0.00 0.00 100 1021.2
20260905090404 67 100 3.0 6.0 0.00 0.00 0.00 100 1021.2
20260905085903 67 67 3.0 6.0 0.00 0.00 0.00 100 1021.1
20260905085404 67 79 2.0 6.0 0.00 0.00 0.00 100 1021.1
20260905084904 67 64 5.0 9.0 0.00 0.00 0.00 100 1021.2
20260905084404 67 62 4.0 9.0 0.00 0.00 0.00 100 1021.2
20260905083903 67 74 2.0 5.0 0.00 0.00 0.00 100 1021.3
20260905083404 67 79 2.0 7.0 0.00 0.00 0.00 100 1021.4
20260905082904 67 56 3.0 7.0 0.00 0.00 0.00 100 1021.3
20260905082404 67 57 5.0 8.0 0.00 0.00 0.00 100 1021.3
20260905081904 67 70 5.0 8.0 0.00 0.00 0.00 100 1021.3
20260905081404 67 71 4.0 7.0 0.00 0.00 0.00 100 1021.2
20260905075904 67 77 5.0 10.0 0.00 0.00 0.00 100 1021.1
20260905075409 67 112 5.0 9.0 0.00 0.00 0.00 100 1021.3
20260905074904 67 91 2.0 7.0 0.00 0.00 0.00 100 1021.4
20260905074403 67 47 1.0 6.0 0.00 0.00 0.00 100 1021.3
20260905073904 67 54 3.0 7.0 0.00 0.00 0.00 100 1021.3
20260905072904 67 28 2.0 7.0 0.00 0.00 0.00 100 1021.3
20260905072404 67 27 2.0 6.0 0.00 0.00 0.00 100 1021.3
20260905071904 67 24 4.0 8.0 0.00 0.00 0.00 100 1021.2
20260905071404 67 5 3.0 6.0 0.00 0.00 0.00 100 1021.5
20260905070904 67 29 5.0 9.0 0.00 0.00 0.00 100 1021.5
20260905070404 67 15 2.0 9.0 0.00 0.00 0.00 100 1021.4
20260905065404 67 22 1.0 3.0 0.00 0.00 0.00 100 1021.6
20260905064904 67 24 0.0 0.0 0.00 0.00 0.00 100 1021.4
20260905064404 67 24 0.0 3.0 0.00 0.00 0.00 100 1021.3
20260905063904 67 24 0.0 2.0 0.00 0.00 0.00 100 1021.0
20260905063404 67 24 2.0 3.0 0.00 0.00 0.00 100 1020.9
20260905062916 67 63 0.0 1.0 0.00 0.00 0.00 100 1021.0
20260905062405 67 63 0.0 1.0 0.00 0.00 0.00 100 1021.0
20260905061904 67 63 1.0 2.0 0.00 0.00 0.00 100 1020.9
20260905061404 67 63 1.0 2.0 0.00 0.00 0.00 100 1020.7
20260905060903 67 63 1.0 2.0 0.00 0.00 0.00 100 1020.6
20260905060404 67 63 0.0 2.0 0.00 0.00 0.00 100 1020.7
20260905055404 67 63 1.0 3.0 0.00 0.00 0.00 100 1020.7
20260905054903 67 63 0.0 2.0 0.00 0.00 0.00 100 1020.7
20260905054404 67 63 1.0 2.0 0.00 0.00 0.00 100 1020.6
20260905053904 67 64 0.0 2.0 0.00 0.00 0.00 100 1020.7
20260905053404 67 64 0.0 2.0 0.00 0.00 0.00 100 1020.6
20260905052904 67 64 0.0 0.0 0.00 0.00 0.00 100 1020.7
20260905051904 67 64 0.0 2.0 0.00 0.00 0.00 100 1020.7
20260905051404 67 64 1.0 3.0 0.00 0.00 0.00 100 1020.6
20260905050904 67 63 1.0 3.0 0.00 0.00 0.00 100 1020.7
20260905045904 67 64 1.0 3.0 0.00 0.00 0.00 100 1020.7
20260905045404 67 63 2.0 3.0 0.00 0.00 0.00 100 1020.7
20260905044904 67 63 1.0 3.0 0.00 0.00 0.00 100 1020.7
20260905044404 67 62 2.0 3.0 0.00 0.00 0.00 100 1020.7
20260905043904 66 61 2.0 5.0 0.00 0.00 0.00 100 1020.7
20260905043404 67 53 2.0 5.0 0.00 0.00 0.00 100 1020.8
20260905041905 67 84 2.0 3.0 0.00 0.00 0.00 100 1021.0
20260905041404 67 44 2.0 3.0 0.00 0.00 0.00 100 1021.0
20260905040904 67 41 1.0 5.0 0.00 0.00 0.00 100 1021.0
20260905040404 67 32 2.0 5.0 0.00 0.00 0.00 100 1020.9
20260905035404 67 60 3.0 6.0 0.00 0.00 0.00 100 1021.0
20260905034904 67 61 2.0 3.0 0.00 0.00 0.00 100 1021.0
20260905034404 67 73 2.0 3.0 0.00 0.00 0.00 100 1021.0
20260905033904 67 79 2.0 5.0 0.00 0.00 0.00 100 1021.0
20260905033404 67 55 3.0 5.0 0.00 0.00 0.00 100 1020.9
20260905032904 67 48 1.0 3.0 0.00 0.00 0.00 100 1020.9
20260905032404 67 46 2.0 3.0 0.00 0.00 0.00 100 1020.9
20260905031904 67 51 1.0 3.0 0.00 0.00 0.00 100 1021.0
20260905031404 66 49 3.0 5.0 0.00 0.00 0.00 100 1020.9
20260905030904 67 46 3.0 5.0 0.00 0.00 0.00 100 1021.0
20260905025404 67 71 1.0 3.0 0.00 0.00 0.00 100 1021.0
20260905024904 67 71 2.0 5.0 0.00 0.00 0.00 100 1020.9
20260905024404 67 76 1.0 3.0 0.00 0.00 0.00 100 1020.9
20260905023404 67 61 1.0 3.0 0.00 0.00 0.00 100 1021.0
20260905022904 67 63 1.0 3.0 0.00 0.00 0.00 100 1021.0
20260905022404 67 65 0.0 3.0 0.00 0.00 0.00 100 1021.1
20260905021904 67 65 3.0 6.0 0.00 0.00 0.00 100 1021.2
20260905020903 67 37 0.0 3.0 0.00 0.00 0.00 100 1021.2
20260905020404 67 37 2.0 3.0 0.00 0.00 0.00 100 1021.3
20260905015904 67 38 1.0 3.0 0.00 0.00 0.00 100 1021.3
20260905014904 67 23 1.0 7.0 0.00 0.00 0.00 100 1021.4
20260905013904 67 33 3.0 8.0 0.00 0.00 0.00 100 1021.5
20260905013404 67 25 3.0 8.0 0.00 0.00 0.00 100 1021.7
20260905011904 67 5 2.0 5.0 0.00 0.00 0.00 100 1021.8
20260905011404 67 15 1.0 5.0 0.00 0.00 0.00 100 1021.8
20260905010904 67 20 3.0 7.0 0.00 0.00 0.00 100 1021.9
20260905010404 67 25 2.0 5.0 0.00 0.00 0.00 100 1021.9
20260905005904 67 48 5.0 8.0 0.00 0.00 0.00 100 1022.0
20260905005404 67 20 6.0 9.0 0.00 0.00 0.00 100 1021.9
20260905004904 67 5 4.0 8.0 0.00 0.00 0.00 99 1021.9
20260905004404 67 26 4.0 8.0 0.00 0.00 0.00 99 1021.9
20260905003904 67 26 5.0 9.0 0.00 0.00 0.00 99 1022.0
20260905003404 67 30 3.0 6.0 0.00 0.00 0.00 99 1022.0
20260905002904 67 38 3.0 6.0 0.00 0.00 0.00 99 1022.0
20260905002404 67 32 3.0 6.0 0.00 0.00 0.00 99 1022.0
20260905001904 67 41 2.0 5.0 0.00 0.00 0.00 99 1022.0
20260905001404 67 39 3.0 8.0 0.00 0.00 0.00 99 1021.9
20260905000904 67 41 5.0 9.0 0.00 0.00 0.00 99 1021.8
20260905000404 67 18 4.0 8.0 0.00 0.00 0.00 99 1021.8
20260904235904 67 40 3.0 6.0 0.00 0.00 0.00 99 1021.8
20260904235404 68 36 3.0 6.0 0.00 0.00 0.00 99 1021.8
20260904234904 68 49 2.0 3.0 0.00 0.00 0.00 99 1021.7
20260904234404 67 29 2.0 3.0 0.00 0.00 0.00 99 1021.8
20260904233904 67 37 1.0 3.0 0.00 0.00 0.00 99 1021.8
20260904232404 67 23 3.0 5.0 0.00 0.00 0.00 99 1021.7
20260904231904 67 38 2.0 3.0 0.00 0.00 0.00 99 1021.6
20260904230904 67 46 2.0 3.0 0.00 0.00 0.00 99 1021.7
20260904230404 67 46 2.0 3.0 0.00 0.00 0.00 99 1021.8
20260904225904 67 50 3.0 5.0 0.00 0.00 0.00 99 1021.7
20260904225404 67 52 2.0 5.0 0.00 0.00 0.00 98 1021.7
20260904224904 67 48 2.0 5.0 0.00 0.00 0.00 98 1021.8
20260904224404 67 58 4.0 6.0 0.00 0.00 0.00 98 1021.8
20260904222904 67 75 3.0 6.0 0.00 0.00 0.00 98 1022.0
20260904222404 67 69 4.0 6.0 0.00 0.00 0.00 98 1021.9
20260904221904 67 50 2.0 5.0 0.00 0.00 0.00 98 1022.0
20260904220904 68 51 3.0 5.0 0.00 0.00 0.00 98 1022.1
20260904220404 68 105 3.0 6.0 0.00 0.00 0.00 98 1022.0
20260904215404 68 35 2.0 5.0 0.00 0.00 0.00 98 1022.2
20260904214905 68 92 3.0 6.0 0.00 0.00 0.00 98 1022.2
20260904214404 68 81 2.0 3.0 0.00 0.00 0.00 98 1022.3
20260904213904 68 71 4.0 6.0 0.00 0.00 0.00 98 1022.5
20260904213404 68 63 2.0 3.0 0.00 0.00 0.00 98 1022.6
20260904212404 68 59 4.0 5.0 0.00 0.00 0.00 98 1022.6
20260904211904 68 41 3.0 8.0 0.00 0.00 0.00 97 1022.6
20260904211404 68 46 4.0 6.0 0.00 0.00 0.00 97 1022.7
20260904210904 68 57 3.0 6.0 0.00 0.00 0.00 97 1022.8
20260904210404 68 47 3.0 6.0 0.00 0.00 0.00 97 1022.8
20260904205904 68 69 5.0 8.0 0.00 0.00 0.00 97 1022.7
20260904205403 68 65 3.0 5.0 0.00 0.00 0.00 97 1022.8
20260904204904 68 66 3.0 6.0 0.00 0.00 0.00 97 1022.8
20260904204404 68 48 1.0 3.0 0.00 0.00 0.00 98 1022.8
20260904203903 68 24 2.0 3.0 0.00 0.00 0.00 98 1022.8
20260904203403 68 355 1.0 3.0 0.00 0.00 0.00 98 1022.8
20260904202904 68 355 1.0 3.0 0.00 0.00 0.00 98 1022.7
20260904202404 68 355 2.0 3.0 0.00 0.00 0.00 97 1022.5
20260904201904 68 355 2.0 9.0 0.00 0.00 0.00 97 1022.4
20260904200903 68 320 7.0 9.0 0.00 0.00 0.00 97 1022.3
20260904200404 68 323 5.0 10.0 0.00 0.00 0.00 97 1022.2
20260904195904 68 333 1.0 5.0 0.00 0.00 0.00 97 1022.1
20260904194904 68 347 2.0 8.0 0.00 0.00 0.00 97 1021.9
20260904194403 68 329 1.0 9.0 0.00 0.00 0.00 97 1021.8
20260904193404 68 15 6.0 10.0 0.00 0.00 0.00 96 1021.5
20260904192904 68 17 6.0 9.0 0.00 0.00 0.00 96 1021.4
20260904192404 68 29 6.0 12.0 0.00 0.00 0.00 96 1021.2
20260904191904 68 8 5.0 10.0 0.00 0.00 0.00 96 1021.1
20260904191404 68 17 9.0 14.0 0.00 0.00 0.00 96 1020.9
20260904190904 68 25 2.0 9.0 0.00 0.00 0.00 96 1020.9
20260904185904 68 31 5.0 12.0 0.00 0.00 0.00 96 1020.9
20260904185404 68 44 3.0 12.0 0.00 0.00 0.00 96 1020.9
20260904184904 68 21 7.0 12.0 0.00 0.00 0.00 96 1020.9
20260904184404 68 51 7.0 13.0 0.00 0.00 0.00 96 1021.0
20260904183404 69 19 7.0 12.0 0.00 0.00 0.00 96 1021.0
20260904182903 69 35 5.0 12.0 0.00 0.00 0.00 96 1021.0
20260904181904 69 55 5.0 10.0 0.00 0.00 0.00 96 1021.1
20260904181405 69 37 6.0 9.0 0.00 0.00 0.00 96 1021.0
20260904180904 69 337 5.0 12.0 0.00 0.00 0.00 96 1021.1
20260904180404 69 33 7.0 12.0 0.00 0.00 0.00 96 1021.2
20260904175903 69 44 6.0 12.0 0.00 0.00 0.00 96 1021.1
20260904175404 69 21 7.0 14.0 0.00 0.00 0.00 96 1021.1
20260904174904 69 9 7.0 14.0 0.00 0.00 0.00 96 1021.2
20260904174403 69 22 9.0 14.0 0.00 0.00 0.00 96 1021.2
20260904173904 69 38 9.0 14.0 0.00 0.00 0.00 96 1021.2
20260904173404 69 30 7.0 13.0 0.00 0.00 0.00 95 1021.2
20260904172404 69 39 9.0 13.0 0.00 0.00 0.00 95 1021.2
20260904171904 69 40 8.0 16.0 0.00 0.00 0.00 95 1021.1
20260904171404 69 43 10.0 15.0 0.00 0.00 0.00 95 1021.2
20260904170904 69 29 7.0 14.0 0.00 0.00 0.00 95 1021.1
20260904170404 69 41 12.0 17.0 0.00 0.00 0.00 95 1021.0
20260904165904 69 22 9.0 16.0 0.00 0.00 0.00 95 1021.0
20260904165403 69 37 6.0 13.0 0.00 0.00 0.00 95 1021.0
20260904164403 69 27 11.0 16.0 0.00 0.00 0.00 94 1021.1
20260904163904 69 53 11.0 17.0 0.00 0.00 0.00 94 1021.1
20260904163404 70 36 11.0 16.0 0.00 0.00 0.00 94 1020.9
20260904162904 70 28 9.0 16.0 0.00 0.00 0.00 94 1021.0
20260904161904 70 39 12.0 15.0 0.00 0.00 0.00 93 1021.0
20260904161404 70 34 10.0 17.0 0.00 0.00 0.00 93 1020.9
20260904160904 71 42 10.0 17.0 0.00 0.00 0.00 92 1020.9
20260904155904 71 52 10.0 17.0 0.00 0.00 0.00 91 1020.7
20260904155404 71 43 11.0 17.0 0.00 0.00 0.00 91 1020.6
20260904154904 72 58 10.0 17.0 0.00 0.00 0.00 91 1020.7
20260904154404 72 41 10.0 17.0 0.00 0.00 0.00 91 1020.6
20260904153904 72 36 11.0 17.0 0.00 0.00 0.00 91 1020.5
20260904152404 73 47 12.0 20.0 0.00 0.00 0.00 89 1020.4
20260904151904 73 58 13.0 18.0 0.00 0.00 0.00 88 1020.2
20260904151404 74 52 12.0 17.0 0.00 0.00 0.00 88 1020.1
20260904150903 74 47 12.0 18.0 0.00 0.00 0.00 88 1020.1
20260904150404 74 48 10.0 16.0 0.00 0.00 0.00 88 1020.0
20260904145904 74 43 13.0 20.0 0.00 0.00 0.00 88 1019.9
20260904145404 75 41 12.0 18.0 0.00 0.00 0.00 87 1019.9
20260904144904 75 47 11.0 16.0 0.00 0.00 0.00 87 1019.9
20260904144404 75 69 10.0 16.0 0.00 0.00 0.00 87 1019.9
20260904143904 76 56 12.0 18.0 0.00 0.00 0.00 86 1019.8
20260904143404 76 48 13.0 18.0 0.00 0.00 0.00 86 1019.7
20260904142404 76 48 10.0 15.0 0.00 0.00 0.00 86 1019.8
20260904141904 76 29 7.0 12.0 0.00 0.00 0.00 86 1019.7
20260904141404 76 56 12.0 17.0 0.00 0.00 0.00 85 1019.7